CW9648 Weather Reports


Display with metric or nautical units.
time (UTC)temp
F
wind
direction
speed
MPH
gust
MPH
rain 1hr
in
rain 24hr
in
rain mn
in
humidity
%
barometer
mb
20260905024504 81 0 0.0 0.0 0.00 0.00 0.00 56 1014.8
20260905024004 81 0 0.0 0.0 0.00 0.00 0.00 57 1014.8
20260905023504 81 0 0.0 0.0 0.00 0.00 0.00 56 1014.7
20260905023004 81 0 0.0 0.0 0.00 0.00 0.00 56 1014.8
20260905022504 80 0 0.0 0.0 0.00 0.00 0.00 56 1014.7
20260905022004 80 0 0.0 0.0 0.00 0.00 0.00 54 1014.5
20260905021504 80 0 0.0 0.0 0.00 0.00 0.00 54 1014.5
20260905021006 80 0 0.0 0.0 0.00 0.00 0.00 55 1014.4
20260905020504 80 0 0.0 0.0 0.00 0.00 0.00 59 1014.3
20260905020004 80 0 0.0 0.0 0.00 0.00 0.00 58 1014.2
20260905015504 80 0 0.0 0.0 0.00 0.00 0.00 59 1014.1
20260905015004 81 0 0.0 0.0 0.00 0.00 0.00 61 1013.9
20260905014504 81 0 0.0 0.0 0.00 0.00 0.00 63 1013.7
20260905014004 82 0 0.0 0.0 0.00 0.00 0.00 65 1013.6
20260905013504 82 0 0.0 0.0 0.00 0.00 0.00 65 1013.5
20260905013004 82 0 0.0 0.0 0.00 0.00 0.00 67 1013.4
20260905012525 82 0 0.0 0.0 0.00 0.00 0.00 65 1013.5
20260905012004 82 0 0.0 0.0 0.00 0.00 0.00 64 1013.4
20260905011504 83 0 0.0 0.0 0.00 0.00 0.00 64 1013.4
20260905011004 83 0 0.0 0.0 0.00 0.00 0.00 68 1013.4
20260905010525 83 0 0.0 0.0 0.00 0.00 0.00 70 1013.4
20260905010004 83 0 0.0 0.0 0.00 0.00 0.00 69 1013.5
20260905005504 84 0 0.0 0.0 0.00 0.00 0.00 72 1013.5
20260905005004 84 0 0.0 0.0 0.00 0.00 0.00 72 1013.5
20260905004504 84 0 0.0 0.0 0.00 0.00 0.00 73 1013.5
20260905004004 84 0 0.0 0.0 0.00 0.00 0.00 73 1013.5
20260905003504 85 0 0.0 0.0 0.00 0.00 0.00 73 1013.5
20260905003004 85 0 0.0 0.0 0.00 0.00 0.00 74 1013.5
20260905002504 86 0 0.0 0.0 0.00 0.00 0.00 74 1013.4
20260905002004 86 0 0.0 0.0 0.00 0.00 0.00 75 1013.4
20260905001504 87 0 0.0 0.0 0.00 0.00 0.00 75 1013.4
20260905001004 88 0 0.0 0.0 0.00 0.00 0.00 75 1013.4
20260905000525 88 0 0.0 0.0 0.00 0.00 0.00 76 1013.4
20260905000004 89 0 0.0 0.0 0.00 0.00 0.00 77 1013.4
20260904235504 89 0 0.0 0.0 0.00 0.00 0.00 75 1013.3
20260904235004 90 0 0.0 0.0 0.00 0.00 0.00 76 1013.3
20260904234504 90 0 0.0 0.0 0.00 0.00 0.00 74 1013.4
20260904234004 90 0 0.0 0.0 0.00 0.00 0.00 74 1013.3
20260904233504 91 0 0.0 0.0 0.00 0.00 0.00 72 1013.3
20260904233004 91 0 0.0 0.0 0.00 0.00 0.00 72 1013.3
20260904232504 92 219 0.0 1.0 0.00 0.00 0.00 72 1013.2
20260904232004 92 215 0.0 1.0 0.00 0.00 0.00 68 1013.2
20260904231504 93 147 0.0 2.0 0.00 0.00 0.00 66 1013.2
20260904231004 94 160 0.0 2.0 0.00 0.00 0.00 61 1013.1
20260904230504 94 167 0.0 2.0 0.00 0.00 0.00 63 1013.1
20260904230004 94 146 1.0 3.0 0.00 0.00 0.00 61 1013.1
20260904225504 94 136 0.0 3.0 0.00 0.00 0.00 59 1013.1
20260904225004 94 152 0.0 1.0 0.00 0.00 0.00 60 1013.1
20260904224504 93 130 0.0 1.0 0.00 0.00 0.00 61 1013.1
20260904224004 93 99 0.0 2.0 0.00 0.00 0.00 62 1013.1
20260904223525 93 88 0.0 2.0 0.00 0.00 0.00 60 1013.0
20260904223004 92 88 1.0 2.0 0.00 0.00 0.00 65 1013.0
20260904222504 91 88 1.0 2.0 0.00 0.00 0.00 65 1013.0
20260904222004 91 90 0.0 1.0 0.00 0.00 0.00 72 1013.1
20260904221504 90 78 0.0 1.0 0.00 0.00 0.00 76 1013.1
20260904221025 90 44 0.0 2.0 0.00 0.00 0.00 74 1013.0
20260904220505 90 66 1.0 2.0 0.00 0.00 0.00 72 1013.0
20260904220004 91 74 1.0 4.0 0.00 0.00 0.00 70 1013.1
20260904215504 93 89 2.0 4.0 0.00 0.00 0.00 64 1013.2
20260904215004 94 81 2.0 4.0 0.00 0.00 0.00 62 1013.3
20260904214504 94 92 2.0 4.0 0.00 0.00 0.00 61 1013.5
20260904214004 95 144 2.0 6.0 0.00 0.00 0.00 56 1013.5
20260904213504 95 168 2.0 6.0 0.00 0.00 0.00 57 1013.5
20260904213004 94 161 3.0 6.0 0.00 0.00 0.00 59 1013.5
20260904212504 94 163 3.0 6.0 0.00 0.00 0.00 56 1013.5
20260904212004 95 171 2.0 5.0 0.00 0.00 0.00 57 1013.5
20260904211504 95 171 2.0 5.0 0.00 0.00 0.00 58 1013.6
20260904211025 95 178 2.0 5.0 0.00 0.00 0.00 58 1013.7
20260904210504 94 173 3.0 7.0 0.00 0.00 0.00 59 1013.7
20260904210025 94 166 3.0 7.0 0.00 0.00 0.00 62 1013.6
20260904205504 94 167 3.0 8.0 0.00 0.00 0.00 62 1013.7
20260904205004 95 170 3.0 8.0 0.00 0.00 0.00 61 1013.7
20260904204504 95 170 2.0 7.0 0.00 0.00 0.00 58 1013.7
20260904204004 95 178 2.0 6.0 0.00 0.00 0.00 58 1013.9
20260904203504 95 176 2.0 6.0 0.00 0.00 0.00 59 1013.9
20260904203004 95 204 2.0 6.0 0.00 0.00 0.00 59 1013.9
20260904202525 95 210 2.0 6.0 0.00 0.00 0.00 58 1013.9
20260904202004 94 160 2.0 7.0 0.00 0.00 0.00 59 1014.1
20260904201504 95 160 2.0 7.0 0.00 0.00 0.00 58 1014.2
20260904201004 94 167 1.0 5.0 0.00 0.00 0.00 58 1014.2
20260904200504 94 134 2.0 6.0 0.00 0.00 0.00 59 1014.3
20260904200004 94 129 2.0 8.0 0.00 0.00 0.00 61 1014.5
20260904195504 95 169 2.0 8.0 0.00 0.00 0.00 59 1014.6
20260904195004 95 130 2.0 7.0 0.00 0.00 0.00 63 1014.7
20260904194504 95 130 2.0 6.0 0.00 0.00 0.00 60 1014.7
20260904194004 95 158 2.0 6.0 0.00 0.00 0.00 60 1014.8
20260904193503 94 197 1.0 4.0 0.00 0.00 0.00 62 1014.8
20260904193004 94 248 1.0 4.0 0.00 0.00 0.00 62 1014.9
20260904192504 94 97 1.0 3.0 0.00 0.00 0.00 63 1014.8
20260904192004 94 151 2.0 6.0 0.00 0.00 0.00 61 1014.9
20260904191504 93 166 3.0 7.0 0.00 0.00 0.00 63 1014.9
20260904191025 94 162 3.0 7.0 0.00 0.00 0.00 62 1015.0
20260904190504 94 153 2.0 4.0 0.00 0.00 0.00 66 1015.1
20260904190004 94 165 1.0 4.0 0.00 0.00 0.00 61 1015.2
20260904185504 94 32 1.0 4.0 0.00 0.00 0.00 64 1015.2
20260904185004 93 348 2.0 5.0 0.00 0.00 0.00 64 1015.3
20260904184504 92 350 3.0 5.0 0.00 0.00 0.00 63 1015.4
20260904184003 93 16 2.0 5.0 0.00 0.00 0.00 60 1015.5
20260904183504 93 157 2.0 6.0 0.00 0.00 0.00 62 1015.6
20260904183004 92 177 2.0 6.0 0.00 0.00 0.00 59 1015.5
20260904182525 92 176 2.0 5.0 0.00 0.00 0.00 62 1015.6
20260904182003 92 174 2.0 5.0 0.00 0.00 0.00 60 1015.7
20260904181503 92 41 2.0 5.0 0.00 0.00 0.00 62 1015.8
20260904181025 92 83 2.0 5.0 0.00 0.00 0.00 61 1015.9
20260904180504 92 58 2.0 5.0 0.00 0.00 0.00 63 1015.9
20260904180025 92 349 2.0 5.0 0.00 0.00 0.00 63 1015.9
20260904175504 92 30 2.0 5.0 0.00 0.00 0.00 63 1016.1
20260904175004 92 73 2.0 5.0 0.00 0.00 0.00 64 1016.0
20260904174503 92 114 1.0 4.0 0.00 0.00 0.00 67 1016.1
20260904174025 91 95 1.0 4.0 0.00 0.00 0.00 70 1016.3
20260904173504 91 133 2.0 5.0 0.00 0.00 0.00 69 1016.3
20260904173004 90 196 2.0 5.0 0.00 0.00 0.00 70 1016.3
20260904172503 90 160 1.0 3.0 0.00 0.00 0.00 70 1016.3
20260904172004 89 144 0.0 3.0 0.00 0.00 0.00 71 1016.5
20260904171503 89 150 0.0 5.0 0.00 0.00 0.00 72 1016.5
20260904171004 89 173 0.0 5.0 0.00 0.00 0.00 72 1016.7
20260904170503 89 200 0.0 4.0 0.00 0.00 0.00 72 1016.7
20260904170004 88 205 0.0 4.0 0.00 0.00 0.00 73 1016.9
20260904165503 88 223 1.0 2.0 0.00 0.00 0.00 74 1016.8
20260904165003 87 228 1.0 3.0 0.00 0.00 0.00 73 1017.0
20260904164504 88 246 2.0 4.0 0.00 0.00 0.00 74 1017.1
20260904164004 88 244 2.0 4.0 0.00 0.00 0.00 73 1017.1
20260904163504 88 233 2.0 4.0 0.00 0.00 0.00 74 1017.1
20260904163003 88 242 1.0 3.0 0.00 0.00 0.00 75 1017.2
20260904162503 88 250 1.0 3.0 0.00 0.00 0.00 74 1017.2
20260904162003 87 203 2.0 6.0 0.00 0.00 0.00 75 1017.2
20260904161504 88 192 2.0 6.0 0.00 0.00 0.00 74 1017.2
20260904161003 89 203 1.0 4.0 0.00 0.00 0.00 74 1017.0
20260904160503 89 202 1.0 2.0 0.00 0.00 0.00 74 1017.1
20260904160004 88 245 0.0 2.0 0.00 0.00 0.00 74 1017.1
20260904155503 87 0 0.0 0.0 0.00 0.00 0.00 74 1017.0
20260904155003 86 355 0.0 2.0 0.00 0.00 0.00 74 1017.1
20260904154503 86 355 0.0 2.0 0.00 0.00 0.00 73 1017.0
20260904154024 86 0 0.0 0.0 0.00 0.00 0.00 73 1016.9
20260904153504 85 0 0.0 0.0 0.00 0.00 0.00 72 1016.9
20260904153003 84 0 0.0 0.0 0.00 0.00 0.00 70 1016.9
20260904152503 84 257 0.0 1.0 0.00 0.00 0.00 67 1016.9
20260904152003 84 293 1.0 4.0 0.00 0.00 0.00 67 1016.9
20260904151503 84 302 2.0 4.0 0.00 0.00 0.00 63 1016.9
20260904151003 83 312 1.0 3.0 0.00 0.00 0.00 54 1016.8
20260904150503 84 270 0.0 2.0 0.00 0.00 0.00 47 1016.9
20260904150004 83 257 0.0 2.0 0.00 0.00 0.00 42 1016.9
20260904145503 82 325 1.0 2.0 0.00 0.00 0.00 40 1016.9
20260904145003 82 346 1.0 2.0 0.00 0.00 0.00 39 1016.9
20260904144503 81 352 1.0 2.0 0.00 0.00 0.00 39 1016.9
20260904144003 81 343 1.0 2.0 0.00 0.00 0.00 40 1017.0
20260904143503 80 348 0.0 2.0 0.00 0.00 0.00 40 1017.0
20260904143003 80 15 0.0 2.0 0.00 0.00 0.00 40 1017.0
20260904142525 80 14 0.0 2.0 0.00 0.00 0.00 40 1016.9
20260904142004 79 0 0.0 0.0 0.00 0.00 0.00 40 1016.9
20260904141525 79 0 0.0 0.0 0.00 0.00 0.00 40 1016.9
20260904141024 79 0 0.0 0.0 0.00 0.00 0.00 40 1016.9
20260904140504 79 0 0.0 0.0 0.00 0.00 0.00 40 1016.9
20260904140004 78 0 0.0 0.0 0.00 0.00 0.00 41 1017.0
20260904135503 78 0 0.0 0.0 0.00 0.02 0.00 41 1016.8
20260904135004 78 0 0.0 0.0 0.00 0.12 0.00 41 1016.9
20260904134503 77 0 0.0 0.0 0.00 0.27 0.00 41 1016.8
20260904134003 77 0 0.0 0.0 0.00 0.27 0.00 41 1016.6
20260904133503 76 0 0.0 0.0 0.00 0.27 0.00 41 1016.6
20260904133003 76 0 0.0 0.0 0.00 0.27 0.00 41 1016.5
20260904132503 75 0 0.0 0.0 0.00 0.27 0.00 41 1016.4
20260904132003 75 0 0.0 0.0 0.00 0.27 0.00 41 1016.5
20260904131503 75 0 0.0 0.0 0.00 0.27 0.00 41 1016.4
20260904131024 75 0 0.0 0.0 0.00 0.27 0.00 41 1016.4
20260904130524 75 0 0.0 0.0 0.00 0.27 0.00 41 1016.3
20260904130003 74 0 0.0 0.0 0.00 0.27 0.00 41 1016.2
20260904125524 74 0 0.0 0.0 0.00 0.27 0.00 41 1016.1
20260904125003 74 0 0.0 0.0 0.00 0.27 0.00 41 1016.1
20260904124503 74 0 0.0 0.0 0.00 0.27 0.00 41 1016.1
20260904124024 74 0 0.0 0.0 0.00 0.27 0.00 42 1016.0
20260904123503 74 0 0.0 0.0 0.00 0.27 0.00 42 1015.8
20260904123024 74 0 0.0 0.0 0.00 0.27 0.00 41 1015.8
20260904122503 74 0 0.0 0.0 0.00 0.27 0.00 41 1015.8
20260904122003 74 0 0.0 0.0 0.00 0.27 0.00 41 1015.8
20260904121503 73 0 0.0 0.0 0.00 0.27 0.00 41 1015.8
20260904121003 73 0 0.0 0.0 0.00 0.27 0.00 41 1015.7
20260904120503 73 0 0.0 0.0 0.00 0.27 0.00 41 1015.6
20260904120003 73 0 0.0 0.0 0.00 0.27 0.00 41 1015.5
20260904115503 73 0 0.0 0.0 0.00 0.27 0.00 41 1015.5
20260904115003 74 0 0.0 0.0 0.00 0.27 0.00 41 1015.5
20260904114503 74 0 0.0 0.0 0.00 0.27 0.00 41 1015.5
20260904114003 74 0 0.0 0.0 0.00 0.27 0.00 41 1015.5
20260904113503 74 0 0.0 0.0 0.00 0.27 0.00 41 1015.5
20260904113003 74 0 0.0 0.0 0.00 0.27 0.00 41 1015.4
20260904112503 74 0 0.0 0.0 0.00 0.27 0.00 42 1015.4
20260904112025 74 0 0.0 0.0 0.00 0.27 0.00 42 1015.3
20260904111503 74 0 0.0 0.0 0.00 0.27 0.00 41 1015.3
20260904111003 74 0 0.0 0.0 0.00 0.27 0.00 41 1015.3
20260904110503 74 0 0.0 0.0 0.00 0.27 0.00 41 1015.3
20260904110003 74 0 0.0 0.0 0.00 0.27 0.00 41 1015.4
20260904105503 74 0 0.0 0.0 0.00 0.27 0.00 41 1015.3
20260904105003 74 0 0.0 0.0 0.00 0.27 0.00 41 1015.3
20260904104503 74 0 0.0 0.0 0.00 0.27 0.00 41 1015.3
20260904104003 74 0 0.0 0.0 0.00 0.27 0.00 41 1015.3
20260904103503 74 0 0.0 0.0 0.00 0.27 0.00 41 1015.4
20260904103003 74 0 0.0 0.0 0.00 0.27 0.00 41 1015.3
20260904102503 74 0 0.0 0.0 0.00 0.27 0.00 41 1015.4
20260904102003 74 0 0.0 0.0 0.00 0.27 0.00 41 1015.4
20260904101524 74 0 0.0 0.0 0.00 0.27 0.00 41 1015.3
20260904101024 74 0 0.0 0.0 0.00 0.27 0.00 41 1015.3
20260904100503 74 0 0.0 0.0 0.00 0.27 0.00 41 1015.2
20260904100003 74 0 0.0 0.0 0.00 0.27 0.00 41 1015.3
20260904095503 74 0 0.0 0.0 0.00 0.27 0.00 41 1015.4
20260904095003 74 0 0.0 0.0 0.00 0.27 0.00 41 1015.4
20260904094504 74 0 0.0 0.0 0.00 0.27 0.00 41 1015.4
20260904094003 74 0 0.0 0.0 0.00 0.27 0.00 41 1015.3
20260904093503 75 0 0.0 0.0 0.00 0.27 0.00 41 1015.3
20260904093003 75 0 0.0 0.0 0.00 0.27 0.00 41 1015.2
20260904092503 75 0 0.0 0.0 0.00 0.27 0.00 41 1015.2
20260904092024 74 0 0.0 0.0 0.00 0.27 0.00 41 1015.2
20260904091503 74 0 0.0 0.0 0.00 0.27 0.00 41 1015.2
20260904091003 74 0 0.0 0.0 0.00 0.27 0.00 41 1015.2
20260904090503 74 0 0.0 0.0 0.00 0.27 0.00 41 1015.2
20260904090004 74 0 0.0 0.0 0.00 0.27 0.00 41 1015.2
20260904085503 74 0 0.0 0.0 0.00 0.27 0.00 41 1015.2
20260904085003 75 0 0.0 0.0 0.00 0.27 0.00 41 1015.1
20260904084503 75 0 0.0 0.0 0.00 0.27 0.00 41 1015.0
20260904084003 75 0 0.0 0.0 0.00 0.27 0.00 41 1015.2
20260904083503 75 0 0.0 0.0 0.00 0.27 0.00 41 1015.2
20260904083024 75 0 0.0 0.0 0.00 0.27 0.00 41 1015.2
20260904082524 75 0 0.0 0.0 0.00 0.27 0.00 41 1015.2
20260904082003 75 0 0.0 0.0 0.00 0.27 0.00 41 1015.1
20260904081503 75 0 0.0 0.0 0.00 0.27 0.00 41 1015.2
20260904081024 75 0 0.0 0.0 0.00 0.27 0.00 41 1015.1
20260904080503 75 0 0.0 0.0 0.00 0.27 0.00 41 1015.1
20260904080003 75 0 0.0 0.0 0.00 0.27 0.00 41 1015.1
20260904075503 75 0 0.0 0.0 0.00 0.27 0.00 41 1015.1
20260904075003 75 0 0.0 0.0 0.00 0.27 0.00 41 1015.2
20260904074503 75 0 0.0 0.0 0.00 0.27 0.00 41 1015.2
20260904074003 75 0 0.0 0.0 0.00 0.27 0.00 41 1015.2
20260904073503 75 0 0.0 0.0 0.00 0.27 0.00 41 1015.0
20260904073003 75 0 0.0 0.0 0.00 0.27 0.00 41 1015.0
20260904072506 75 0 0.0 0.0 0.00 0.27 0.00 41 1014.9
20260904072024 75 0 0.0 0.0 0.00 0.27 0.00 41 1014.9
20260904071503 75 0 0.0 0.0 0.00 0.27 0.00 41 1014.9
20260904071003 75 0 0.0 0.0 0.00 0.27 0.00 41 1014.9
20260904070524 76 0 0.0 0.0 0.00 0.27 0.00 41 1015.0
20260904070003 76 0 0.0 0.0 0.00 0.27 0.00 41 1014.9
20260904065503 76 0 0.0 0.0 0.00 0.27 0.00 41 1015.0
20260904065003 76 0 0.0 0.0 0.00 0.27 0.00 41 1015.0
20260904064524 75 0 0.0 0.0 0.00 0.27 0.00 41 1015.1
20260904064024 76 0 0.0 0.0 0.00 0.27 0.00 41 1015.0
20260904063503 76 0 0.0 0.0 0.00 0.27 0.00 41 1014.9
20260904063003 76 0 0.0 0.0 0.00 0.27 0.00 41 1014.8
20260904062503 76 0 0.0 0.0 0.00 0.27 0.00 41 1014.7
20260904062003 76 0 0.0 0.0 0.00 0.27 0.00 41 1014.8
20260904061503 76 0 0.0 0.0 0.00 0.27 0.00 41 1014.7
20260904061003 76 0 0.0 0.0 0.00 0.27 0.00 41 1014.7
20260904060503 76 0 0.0 0.0 0.00 0.27 0.00 41 1014.8
20260904060024 76 0 0.0 0.0 0.00 0.27 0.00 41 1014.7
20260904055524 76 0 0.0 0.0 0.00 0.27 0.00 41 1014.6
20260904055003 76 0 0.0 0.0 0.00 0.27 0.00 41 1014.7
20260904054524 76 0 0.0 0.0 0.00 0.27 0.00 41 1014.6
20260904054003 76 0 0.0 0.0 0.00 0.27 0.00 41 1014.6
20260904053503 76 0 0.0 0.0 0.00 0.27 0.00 41 1014.6
20260904053003 76 0 0.0 0.0 0.00 0.27 0.00 41 1014.5
20260904052503 76 0 0.0 0.0 0.00 0.27 0.00 41 1014.4
20260904052024 76 0 0.0 0.0 0.00 0.27 0.00 41 1014.5
20260904051503 76 0 0.0 0.0 0.00 0.27 0.00 41 1014.5
20260904051003 76 0 0.0 0.0 0.00 0.27 0.00 41 1014.5
20260904050504 76 0 0.0 0.0 0.00 0.27 0.00 41 1014.5
20260904050003 76 0 0.0 0.0 0.00 0.27 0.00 41 1014.4
20260904045503 76 0 0.0 0.0 0.00 0.27 0.27 41 1014.3
20260904045003 76 0 0.0 0.0 0.00 0.27 0.27 41 1014.5
20260904044524 76 0 0.0 0.0 0.00 0.27 0.27 41 1014.5
20260904044003 76 0 0.0 0.0 0.00 0.27 0.27 41 1014.5
20260904043503 76 0 0.0 0.0 0.00 0.27 0.27 41 1014.5
20260904043004 77 0 0.0 0.0 0.00 0.27 0.27 41 1014.5
20260904042526 76 0 0.0 0.0 0.00 0.27 0.27 41 1014.6
20260904042005 76 0 0.0 0.0 0.00 0.27 0.27 41 1014.7
20260904041505 76 0 0.0 0.0 0.00 0.27 0.27 41 1014.7
20260904041004 77 0 0.0 0.0 0.00 0.27 0.27 41 1014.7
20260904040504 77 0 0.0 0.0 0.00 0.27 0.27 41 1014.7
20260904040004 77 0 0.0 0.0 0.00 0.27 0.27 41 1014.7
20260904035504 77 0 0.0 0.0 0.00 0.27 0.27 41 1014.8
20260904035005 77 0 0.0 0.0 0.00 0.27 0.27 41 1014.8
20260904034504 77 0 0.0 0.0 0.00 0.28 0.27 41 1014.8
20260904034004 77 0 0.0 0.0 0.00 0.28 0.27 41 1014.8
20260904033504 77 0 0.0 0.0 0.00 0.28 0.27 41 1014.8
20260904033025 77 0 0.0 0.0 0.00 0.28 0.27 42 1014.8
20260904032505 77 0 0.0 0.0 0.00 0.28 0.27 42 1014.8
20260904032007 77 0 0.0 0.0 0.00 0.29 0.27 42 1014.8
20260904031504 77 0 0.0 0.0 0.00 0.29 0.27 42 1014.7
20260904031004 77 0 0.0 0.0 0.00 0.30 0.27 42 1014.7
20260904030504 77 0 0.0 0.0 0.00 0.32 0.27 43 1014.7
20260904030004 77 0 0.0 0.0 0.00 0.32 0.27 43 1014.7
20260904025505 77 0 0.0 0.0 0.00 0.33 0.27 43 1014.7
20260904025005 78 0 0.0 0.0 0.00 0.34 0.27 43 1014.7